TimeCAT,TemperatureF,Dew PointF,Humidity,Sea Level PressureIn,VisibilityMPH,Wind Direction,Wind SpeedMPH,Gust SpeedMPH,PrecipitationIn,Events,Conditions,WindDirDegrees,DateUTC
1:00 AM,59.0,57.2,94,30.18,-9999.0,SE,4.6,-,N/A,,Clear,130,2012-10-12 23:00:00
2:00 AM,59.0,57.2,94,30.18,6.2,SE,5.8,-,N/A,,Scattered Clouds,130,2012-10-13 00:00:00
4:00 AM,57.2,55.4,94,30.15,-9999.0,SSE,4.6,-,N/A,,Clear,150,2012-10-13 02:00:00
5:00 AM,57.2,55.4,94,30.15,1.9,SE,6.9,-,N/A,,Mist,130,2012-10-13 03:00:00
6:00 AM,57.2,55.4,94,30.18,6.2,ESE,2.3,-,N/A,,Overcast,120,2012-10-13 04:00:00
7:00 AM,59.0,57.2,94,30.21,6.2,ESE,3.5,-,N/A,,Overcast,110,2012-10-13 05:00:00
8:00 AM,62,58,81,,6,ENE,8.1,,,,Overcast,70,2012-10-13 06:00:00
8:00 AM,62.6,57.2,82,30.24,6.2,ENE,8.1,-,N/A,,Overcast,70,2012-10-13 06:00:00
9:00 AM,62.6,57.2,82,30.24,6.2,East,12.7,-,N/A,,Overcast,80,2012-10-13 07:00:00
10:00 AM,62.6,59.0,88,30.24,3.7,ENE,12.7,-,N/A,,Drizzle,70,2012-10-13 08:00:00
11:00 AM,64.4,59.0,83,30.21,6.2,ENE,10.4,-,N/A,,Overcast,60,2012-10-13 09:00:00
12:00 PM,66.2,59.0,78,30.21,6.2,ENE,12.7,-,N/A,,Overcast,60,2012-10-13 10:00:00
1:00 PM,68.0,57.2,68,30.18,6.2,NE,10.4,-,N/A,,Overcast,40,2012-10-13 11:00:00
2:00 PM,70,57,55,,6,NE,9.2,,,,Overcast,50,2012-10-13 12:00:00
2:00 PM,69.8,57.2,64,30.15,6.2,NE,9.2,-,N/A,,Overcast,50,2012-10-13 12:00:00
3:00 PM,71.6,57.2,60,30.12,6.2,ENE,12.7,-,N/A,,Overcast,70,2012-10-13 13:00:00
4:00 PM,71.6,57.2,60,30.12,6.2,ENE,11.5,-,N/A,,Mostly Cloudy,60,2012-10-13 14:00:00
5:00 PM,71.6,57.2,60,30.09,6.2,ENE,11.5,-,N/A,,Scattered Clouds,70,2012-10-13 15:00:00
6:00 PM,71.6,55.4,57,30.12,-9999.0,ENE,9.2,-,N/A,,Clear,70,2012-10-13 16:00:00
7:00 PM,68.0,57.2,68,30.12,-9999.0,NE,4.6,-,N/A,,Clear,40,2012-10-13 17:00:00
8:00 PM,65,56,65,,6,NNE,3.5,,,,,20,2012-10-13 18:00:00
8:00 PM,64.4,55.4,73,30.15,-9999.0,NNE,3.5,-,N/A,,Clear,20,2012-10-13 18:00:00
9:00 PM,62.6,55.4,77,30.15,-9999.0,NE,6.9,-,N/A,,Clear,40,2012-10-13 19:00:00
10:00 PM,62.6,55.4,77,30.18,-9999.0,ESE,3.5,-,N/A,,Clear,120,2012-10-13 20:00:00
11:00 PM,60.8,55.4,82,30.15,-9999.0,East,5.8,-,N/A,,Clear,100,2012-10-13 21:00:00